Regional Weather Roundup
Issued by NWS Jackson, KY

Home | Current Version | Previous Version | Graphics & Text | Print | Product List | Glossary On
Versions: 1 2 3 4 5 6 7 8 9 10 11 12 13 14 15 16 17 18 19 20 21 22 23 24 25 26 27 28 29 30 31 32 33 34 35 36 37 38 39 40 41 42 43 44 45 46 47 48 49 50
000
ASUS43 KJKL 181710
RWRJKL

EAST KENTUCKY HOURLY WEATHER ROUNDUP
NATIONAL WEATHER SERVICE JACKSON KY
100 PM EDT THU SEP 18 2014

NOTE: "FAIR" INDICATES FEW OR NO CLOUDS BELOW 12,000 FEET WITH
NO SIGNIFICANT WEATHER AND/OR OBSTRUCTIONS TO VISIBILITY.

* THESE REPORTS ARE NOT UNDER NWS QUALITY CONTROL AND MAY NOT
  REPORT WEATHER SUCH AS PRECIPITATION AND FOG.

KYZ079-080-083-085-087-088-110-112-115-119-120-181800
...EASTERN KENTUCKY...

CITY           SKY/WX    TMP DP  RH WIND       PRES   REMARKS
JACKSON        PTSUNNY   66  53  63 CALM      30.08S
LONDON         PTSUNNY   71  54  54 VRB6      30.07F
MONTICELLO*    PTSUNNY   74  57  55 VRB6      30.06F
WILLIAMSBURG*  MOSUNNY   72  57  60 NE8       30.06F
MIDDLESBORO*   MOSUNNY   72  58  61 NE5       30.06F
HARLAN APT*    MOSUNNY   72  52  49 MISG      30.06F
HAZARD APT*    MOSUNNY   72  55  56 CALM      30.07
BLACK MTN*       N/A     61  54  77 N5          N/A
PIKEVILLE APT* PTSUNNY   64  55  72 CALM      30.09S
BIG SANDY*     CLOUDY    70  56  59 E3        30.08S
MOREHEAD APT*  PTSUNNY   68  50  52 VRB3      30.11R
$$

KYZ035-036-041-042-044-050-067-078-099-181800
...CENTRAL KENTUCKY...

CITY           SKY/WX    TMP DP  RH WIND       PRES   REMARKS
MT STERLING*   PTSUNNY   68  52  56 E6        30.10S
FLEMING/MASON* PTSUNNY   70  50  49 NE8       30.10S
DANVILLE*      PTSUNNY   70  54  56 NE7       30.08F
RICHMOND*      MOSUNNY   70  52  52 NE9       30.07F
LEXINGTON      MOSUNNY   71  54  54 NE10      30.08F
FRANKFORT      SUNNY     69  51  52 NE12      30.07F
$$

KYZ091>093-OHZ055-061-077-WVZ005-015-034-035-042-181800
...SOUTHERN OHIO/WEST VIRGINIA...

CITY           SKY/WX    TMP DP  RH WIND       PRES   REMARKS
COVINGTON      MOSUNNY   70  47  43 NE9G24    30.09F
COLUMBUS       MOSUNNY   72  45  37 NE10      30.11S
DAYTON         MOSUNNY   70  46  42 NE9       30.12F
WILMINGTON     MOSUNNY   67  47  48 E8        30.10F
HUNTINGTON     SUNNY     69  53  56 NE3       30.07S
CHARLESTON     MOSUNNY   70  56  61 VRB5      30.06F
PINEVILLE*     MOSUNNY   67  60  77 MISG      30.12S
BECKLEY        CLOUDY    67  50  54 N7        30.09S
BLUEFIELD      MOSUNNY   68  48  48 CALM      30.10F
$$

VAZ002-007-008-TNZ017-027-036-066-071-181800
...SOUTHWEST VIRGINIA/EAST TENNESSEE...

CITY           SKY/WX    TMP DP  RH WIND       PRES   REMARKS
WISE*          CLOUDY    64  52  63 N5        30.12S
JONESVILLE*    MOSUNNY   72  54  53 CALM      30.08F
ABINGDON*      CLOUDY    68  58  72 CALM      30.08F
BRISTOL        PTSUNNY   72  54  53 VRB3      30.06S
KNOXVILLE      PTSUNNY   76  52  43 N6        30.01F
OAK RIDGE      MOSUNNY   76  52  43 VRB6      30.04F
CROSSVILLE     MOSUNNY   73  50  44 E5        30.06S
NASHVILLE      PTSUNNY   74  56  53 E5        30.03F
$$

...KEY TO REMARKS...
VSB - VISIBILITY IN MILES
WCI - WIND CHILL INDEX
HX  - HEAT INDEX

$$



USA.gov is the U.S. government's official web portal to all federal, state and local government web resources and services.